[[{"header":{"parameterUnit":"m.s-1","parameterCategory":1,"la1":30.2991,"la2":30.254,"lo1":-89.0895,"lo2":-89.0444,"dy":0.0017,"dx":0.0017,"nx":28,"ny":28,"refTime":"2025-05-16T09:00:00:Z","depth":0,"parameterNumber":2,"parameterNumberName":"U-component_of_WINDS"},"data":[0,0,0,0,0,0,0,0,0,0,0,0,0,0,0,0,0,0,0,0,0,0,0,0,0,0,0,0,0,0,0,0,0,0,0,0,0,0,0,0,0,0,0,0,0,0,0,0,0,0,0,0,0,0,0,0,0,0,1.3582,1.3583,0,1.3648,1.3649,1.365,1.3653,1.3653,1.3652,1.3651,1.3718,1.372,1.3723,0,0,0,0,0,0,0,0,0,0,0,0,0,1.3458,1.346,1.3582,1.3583,1.3584,1.3648,1.3649,1.365,1.3654,1.3653,1.3652,1.3651,1.3717,1.372,1.3723,0,0,0,0,0,0,0,0,0,0,0,0,0,1.3516,1.3461,1.3582,1.3593,1.3595,1.3648,1.3649,1.365,1.3654,1.3653,1.3651,1.365,1.3716,1.372,1.3724,1.3769,0,0,1.3735,1.3737,0,0,0,0,0,0,0,0,1.3513,1.3521,1.3591,1.3593,1.3595,1.3642,1.363,1.369,1.3654,1.3631,1.3651,1.365,1.3693,1.3699,1.3714,1.3773,1.3775,1.3735,1.3738,1.3739,1.374,0,0,0,0,0,0,0,1.3509,1.3518,1.3608,1.3592,1.3594,1.3595,1.3602,1.3641,1.3668,1.3633,1.3634,1.3642,1.3694,1.371,1.3715,1.3776,1.3735,1.3738,1.3741,1.3742,1.3875,1.3877,0,0,0,0,0,0,1.3503,1.3515,1.3606,1.361,1.355,1.3598,1.3606,1.3628,1.3668,1.3673,1.3642,1.3641,1.3704,1.3711,1.3718,1.3774,1.3739,1.3743,1.3745,1.3874,1.3876,1.3877,0,0,0,0,0,0,1.35,1.3511,1.3604,1.3563,1.3575,1.3601,1.3626,1.363,1.3646,1.3675,1.3679,1.3654,1.3704,1.3713,1.3757,1.3776,1.3744,1.3748,1.3873,1.3875,1.3876,1.3886,0,0,0,0,0,0,1.3497,1.351,1.3528,1.3563,1.3577,1.3642,1.3627,1.3632,1.3652,1.3651,1.3687,1.3691,1.3704,1.3751,1.376,1.3781,1.3751,1.3871,1.3874,1.3876,1.3885,1.3889,1.3892,0,0,0,0,0,1.3492,1.3528,1.3529,1.354,1.36,1.3643,1.3651,1.3664,1.3654,1.3672,1.369,1.369,1.3773,1.3755,1.3766,1.3788,1.387,1.3873,1.3876,1.3883,1.3888,1.3892,0,0,0,0,0,0,1.3495,1.3533,1.3534,1.3583,1.361,1.3643,1.3667,1.3669,1.3699,1.3697,1.3712,1.372,1.3764,1.378,1.376,1.3834,1.382,1.3825,1.3822,1.3827,1.383,1.3825,1.3754,0,0,0,0,0,1.3501,1.3533,1.3565,1.3604,1.3618,1.364,1.3659,1.3667,1.3695,1.3707,1.3728,1.3755,1.3787,1.3808,1.3839,1.3887,1.3894,1.3907,1.3911,1.3914,1.3918,1.3944,1.395,1.3887,1.3887,1.3887,0,0,1.3514,1.3539,1.3558,1.3606,1.3627,1.3659,1.3649,1.3684,1.3708,1.3712,1.3755,1.3771,1.3802,1.3848,1.387,1.3864,1.3937,1.3917,1.392,1.3922,1.3948,1.3954,1.3959,1.3889,1.3888,1.3888,0,0,1.3555,1.3577,1.3612,1.3634,1.3667,1.3682,1.369,1.3723,1.3735,1.3778,1.3781,1.381,1.3864,1.3886,1.3905,1.3953,1.3953,1.3962,1.3982,1.4007,1.4012,1.4016,1.4033,1.4039,1.3966,1.3966,1.3966,0,1.3567,1.3616,1.363,1.3665,1.3685,1.369,1.3726,1.3746,1.3787,1.3801,1.3793,1.3862,1.3883,1.3934,1.3946,1.3961,1.397,1.3958,1.401,1.4015,1.4019,1.4035,1.4042,1.3967,1.3967,1.3967,1.3967,0,1.3629,1.3663,1.3688,1.3728,1.3751,1.3786,1.3805,1.3826,1.3832,1.3847,1.3891,1.3916,1.3952,1.3965,1.3971,1.4017,1.4012,1.4007,1.3993,1.4026,1.4041,1.4047,1.3968,1.3968,1.3968,1.3968,0,0,1.3674,1.3721,1.3729,1.3747,1.3784,1.381,1.3845,1.388,1.3898,1.3926,1.3955,1.4001,1.3997,1.4018,1.4026,1.4048,1.4084,1.4041,1.4042,1.4048,1.4135,1.4139,1.4146,1.4085,1.4086,1.4087,1.4133,0,1.3718,1.3781,1.3794,1.3848,1.3879,1.3884,1.3914,1.3939,1.3954,1.3982,1.3998,1.4031,1.4023,1.4035,1.4057,1.4075,1.4102,1.4072,1.4112,1.4113,1.4104,1.4154,1.4157,1.4199,1.4139,1.414,1.4141,0,1.3778,1.3808,1.3865,1.3897,1.391,1.3937,1.397,1.3998,1.4026,1.4035,1.4058,1.4064,1.41,1.4084,1.4133,1.4113,1.413,1.4141,1.4143,1.4147,1.4129,1.4159,1.4213,1.4219,1.415,1.415,1.4149,0,1.3804,1.3858,1.3899,1.3914,1.3953,1.3971,1.3988,1.4016,1.4036,1.4065,1.4078,1.411,1.4128,1.4153,1.4167,1.4155,1.4215,1.4201,1.4223,1.4223,1.4236,1.4235,1.4293,1.4247,1.4247,1.4247,1.4247,0,1.3852,1.3887,1.3911,1.3937,1.3975,1.399,1.4028,1.4044,1.4068,1.4096,1.4102,1.4129,1.4146,1.4175,1.4186,1.4225,1.4233,1.4241,1.4243,1.424,1.4239,1.4251,1.4249,1.4249,1.4248,1.4248,1.4248,0,1.3888,1.3906,1.3951,1.3983,1.3992,1.4019,1.4047,1.4071,1.4086,1.4121,1.413,1.4153,1.4187,1.4204,1.4246,1.4253,1.4297,1.4298,1.4287,1.4288,1.431,1.4307,1.4378,1.4387,1.4335,1.4336,1.4336,0,1.3917,1.3944,1.3979,1.3998,1.4016,1.4047,1.4067,1.4083,1.4104,1.4138,1.4158,1.4192,1.422,1.4274,1.4294,1.4326,1.4327,1.435,1.4332,1.4328,1.4327,1.4325,1.4328,1.4353,1.4353,1.4354,1.4354,0,1.3967,1.3974,1.4004,1.4037,1.4062,1.4088,1.4115,1.413,1.4149,1.4173,1.4207,1.4229,1.4272,1.4305,1.4339,1.4355,1.4358,1.4359,1.4366,1.4363,1.4356,1.436,1.4296,1.4358,1.4357,1.4357,1.4357,1.4357,1.4,1.4024,1.4052,1.4085,1.4107,1.4131,1.4155,1.4173,1.4202,1.4238,1.4245,1.4282,1.4309,1.4354,1.4372,1.44,1.4395,1.4405,1.4408,1.441,1.4411,1.4351,1.4406,1.4406,1.4406,1.4406,1.4406,0,1.405,1.4068,1.4099,1.4135,1.4161,1.4161,1.419,1.4211,1.4244,1.4269,1.4296,1.4336,1.4368,1.4391,1.4424,1.4442,1.4444,1.445,1.4449,1.4452,1.4414,1.4404,1.4448,1.4448,1.4448,1.4448,1.4448,1.4448,1.4079,1.4119,1.413,1.418,1.4199,1.4235,1.4251,1.4273,1.4293,1.4337,1.4364,1.4379,1.4403,1.4438,1.4467,1.4473,1.4484,1.4491,1.4496,1.446,1.4455,1.4451,1.4442,1.4493,1.4493,1.4533,1.4533,1.4533]},{"header":{"parameterUnit":"m.s-1","parameterCategory":1,"la1":30.2991,"la2":30.254,"lo1":-89.0895,"lo2":-89.0444,"dy":0.0017,"dx":0.0017,"nx":28,"ny":28,"refTime":"2025-05-16T09:00:00:Z","depth":0,"parameterNumber":3,"parameterNumberName":"V-component_of_WINDS"},"data":[0,0,0,0,0,0,0,0,0,0,0,0,0,0,0,0,0,0,0,0,0,0,0,0,0,0,0,0,0,0,0,0,0,0,0,0,0,0,0,0,0,0,0,0,0,0,0,0,0,0,0,0,0,0,0,0,0,0,3.1166,3.1166,0,3.118,3.118,3.118,3.1153,3.1153,3.1152,3.1151,3.1162,3.1163,3.1164,0,0,0,0,0,0,0,0,0,0,0,0,0,3.1114,3.1116,3.1166,3.1166,3.1166,3.118,3.118,3.118,3.1154,3.1153,3.1151,3.115,3.1162,3.1163,3.1164,0,0,0,0,0,0,0,0,0,0,0,0,0,3.1133,3.1116,3.1166,3.1155,3.1154,3.118,3.118,3.118,3.1154,3.1153,3.1151,3.115,3.1161,3.1163,3.1165,3.1201,0,0,3.117,3.117,0,0,0,0,0,0,0,0,3.1132,3.1135,3.1156,3.1156,3.1155,3.1164,3.1166,3.1187,3.1154,3.1154,3.1151,3.1149,3.1164,3.1165,3.117,3.1202,3.1202,3.117,3.1171,3.1172,3.1172,0,0,0,0,0,0,0,3.1131,3.1135,3.1171,3.1157,3.1156,3.1148,3.115,3.117,3.1166,3.1154,3.1152,3.1154,3.1163,3.1169,3.117,3.1202,3.117,3.1171,3.1172,3.1173,3.1265,3.1266,0,0,0,0,0,0,3.1132,3.1134,3.1171,3.1172,3.114,3.115,3.1152,3.1162,3.1165,3.1165,3.1155,3.1153,3.1167,3.1168,3.1171,3.1215,3.1172,3.1173,3.1174,3.1264,3.1265,3.1267,0,0,0,0,0,0,3.1131,3.1135,3.117,3.1152,3.1156,3.1153,3.1164,3.1163,3.1169,3.1167,3.1165,3.1162,3.1166,3.1168,3.1194,3.1215,3.1174,3.1175,3.1262,3.1264,3.1266,3.1302,0,0,0,0,0,0,3.1129,3.1135,3.1149,3.1153,3.1157,3.1195,3.1166,3.1164,3.1172,3.1169,3.1173,3.1172,3.1165,3.1192,3.1196,3.1216,3.1177,3.126,3.1263,3.1265,3.1299,3.1305,3.131,0,0,0,0,0,3.1127,3.1158,3.115,3.1155,3.1175,3.1196,3.1198,3.119,3.1174,3.1188,3.1187,3.1172,3.1211,3.1195,3.1199,3.122,3.1259,3.1262,3.1265,3.1297,3.1304,3.131,0,0,0,0,0,0,3.1155,3.1158,3.115,3.1182,3.1189,3.1191,3.1209,3.1198,3.1209,3.1205,3.1194,3.1195,3.1223,3.1224,3.1205,3.1256,3.1232,3.1237,3.1255,3.1262,3.1267,3.1267,3.1178,0,0,0,0,0,3.1166,3.1183,3.1184,3.1213,3.1217,3.1212,3.1221,3.1214,3.122,3.1223,3.1223,3.1229,3.1243,3.1252,3.1264,3.1299,3.1299,3.1315,3.1321,3.1326,3.133,3.1349,3.1356,3.1278,3.1278,3.1278,0,0,3.1187,3.119,3.1202,3.1219,3.1223,3.1241,3.1215,3.1234,3.1247,3.1225,3.1251,3.1251,3.1257,3.1287,3.1301,3.1289,3.1352,3.133,3.1334,3.1335,3.1353,3.136,3.1367,3.128,3.1279,3.1279,0,0,3.1234,3.1238,3.1263,3.1269,3.1277,3.1274,3.128,3.1284,3.1284,3.1309,3.1293,3.1307,3.1331,3.1337,3.1342,3.1393,3.138,3.1397,3.1427,3.1446,3.1452,3.1457,3.1476,3.1483,3.1401,3.1401,3.1401,0,3.1259,3.1286,3.1277,3.1299,3.1307,3.1289,3.1314,3.1319,3.133,3.1336,3.1323,3.1353,3.1355,3.1387,3.14,3.1405,3.1411,3.1397,3.1452,3.1457,3.1462,3.148,3.1487,3.1403,3.1403,3.1402,3.1402,0,3.1316,3.1335,3.1354,3.1367,3.1377,3.14,3.1395,3.1406,3.1398,3.1397,3.1423,3.1425,3.1438,3.1445,3.1437,3.1476,3.1469,3.1454,3.143,3.1472,3.1489,3.1495,3.1406,3.1405,3.1404,3.1404,0,0,3.1382,3.1391,3.1398,3.1404,3.1412,3.1426,3.1448,3.1462,3.1472,3.148,3.1498,3.1519,3.1506,3.1512,3.1505,3.1521,3.1562,3.1504,3.1504,3.1516,3.1607,3.1619,3.1627,3.1553,3.1555,3.1556,3.1606,0,3.143,3.147,3.1463,3.1501,3.1519,3.1503,3.1522,3.1528,3.1527,3.1542,3.154,3.1555,3.1536,3.154,3.1555,3.1554,3.158,3.155,3.1571,3.1571,3.1571,3.1635,3.1648,3.1696,3.1613,3.1614,3.1615,0,3.1491,3.1504,3.1544,3.155,3.1557,3.1575,3.1588,3.1602,3.1609,3.1607,3.1615,3.1604,3.1626,3.1602,3.1631,3.1611,3.1619,3.1619,3.1621,3.1623,3.1596,3.1641,3.1711,3.1719,3.1625,3.1624,3.1623,0,3.1537,3.1563,3.1591,3.1597,3.1604,3.1617,3.162,3.1626,3.1635,3.1646,3.1652,3.1664,3.1672,3.1681,3.1675,3.1657,3.1706,3.1681,3.1705,3.1706,3.1717,3.1716,3.1791,3.172,3.172,3.172,3.172,0,3.1592,3.1618,3.1612,3.1629,3.1658,3.1649,3.1677,3.1678,3.1684,3.1701,3.1686,3.1702,3.1692,3.1707,3.1701,3.1727,3.173,3.1729,3.1728,3.1731,3.1732,3.1737,3.1734,3.1722,3.1721,3.1721,3.1721,0,3.1647,3.1645,3.1675,3.1679,3.1681,3.1702,3.1706,3.1722,3.172,3.1742,3.1746,3.1743,3.176,3.1754,3.1771,3.1768,3.1802,3.1795,3.18,3.1799,3.1824,3.1822,3.1905,3.1916,3.1837,3.1838,3.1839,0,3.1683,3.1703,3.1711,3.1722,3.1727,3.1744,3.1754,3.1747,3.1757,3.1767,3.1782,3.1798,3.1811,3.1838,3.1837,3.1851,3.1845,3.1873,3.1847,3.185,3.1847,3.1846,3.1849,3.1879,3.188,3.188,3.1881,0,3.1748,3.1746,3.1761,3.1777,3.1789,3.1801,3.181,3.182,3.1813,3.1826,3.1844,3.1853,3.1872,3.1889,3.1901,3.1903,3.1891,3.1889,3.1896,3.19,3.1903,3.1903,3.1815,3.1887,3.1887,3.1886,3.1886,3.1886,3.1795,3.1813,3.1821,3.1839,3.1846,3.1856,3.1872,3.1873,3.1888,3.1904,3.1898,3.1919,3.1925,3.1941,3.1945,3.1961,3.195,3.1959,3.1962,3.1965,3.1969,3.19,3.1963,3.1963,3.1963,3.1963,3.1962,0,3.186,3.1865,3.1882,3.1897,3.1911,3.19,3.191,3.1922,3.1942,3.1949,3.1962,3.1983,3.1999,3.2,3.2014,3.2027,3.2022,3.2031,3.2031,3.2032,3.1977,3.1971,3.2035,3.2035,3.2035,3.2035,3.2035,3.2035,3.1895,3.1925,3.1924,3.1956,3.1961,3.1982,3.199,3.1999,3.2005,3.203,3.2043,3.2044,3.2049,3.2064,3.2078,3.2077,3.2084,3.2095,3.2093,3.2042,3.2035,3.2028,3.2022,3.2097,3.2097,3.2146,3.2147,3.2147]}]]